When you browse on this site, cookies collect data to enhance your experience and personalize the content and advertising you see.
Visit our Privacy Policy to learn more. By continuing to use the site, you agree to this use of cookies and data.
  • In Hungary
  • List of Countries
  • For 7 days
  • Water Temperature
  • Weather Map
  • News
  • Weather Widgets
  • user-avatar
    Login

    Hourly Weather Lomonosovo

    Today, 25 February, Tuesday

    Time Temperature Precipitation Wind Pressure Humidity
    00:00 -2°C° 0 mm 3 mps 734 mmHg 76%
    01:00 -2°C° 0 mm 3 mps 734 mmHg 77%
    02:00 -2°C° 0 mm 3 mps 734 mmHg 78%
    03:00 -2°C° 0 mm 3 mps 734 mmHg 79%
    04:00 -4°C° 0 mm 3 mps 734 mmHg 80%
    05:00 -3°C° 0 mm 2 mps 735 mmHg 82%
    06:00 -4°C° 0 mm 3 mps 735 mmHg 81%
    07:00 -4°C° 0 mm 3 mps 735 mmHg 81%
    08:00 -4°C° 0 mm 3 mps 735 mmHg 80%
    09:00 -2°C° 0 mm 3 mps 735 mmHg 73%
    10:00 -1°C° 0 mm 3 mps 735 mmHg 65%
    11:00 0°C° 0 mm 3 mps 735 mmHg 58%
    12:00 +1°C° 0 mm 3 mps 734 mmHg 56%
    13:00 +1°C° 0 mm 3 mps 734 mmHg 54%
    14:00 +1°C° 0 mm 3 mps 734 mmHg 52%
    15:00 +2°C° 0 mm 2 mps 734 mmHg 57%
    16:00 +1°C° 0 mm 2 mps 733 mmHg 62%
    17:00 +1°C° 0 mm 1 mps 733 mmHg 67%
    18:00 -1°C° 0 mm 2 mps 733 mmHg 68%
    19:00 -1°C° 0 mm 2 mps 733 mmHg 70%
    20:00 -1°C° 0 mm 3 mps 732 mmHg 71%
    21:00 -1°C° 0 mm 3 mps 732 mmHg 74%
    22:00 -1°C° 0 mm 3 mps 731 mmHg 77%
    23:00 -2°C° 0 mm 4 mps 730 mmHg 80%

    Tomorrow, 26 February, Wednesday

    Time Temperature Precipitation Wind Pressure Humidity
    00:00 -2°C° 0.2 mm 4 mps 730 mmHg 84%
    01:00 -2°C° 0.2 mm 4 mps 729 mmHg 89%
    02:00 -2°C° 0.2 mm 4 mps 728 mmHg 93%
    03:00 -1°C° 0.2 mm 4 mps 728 mmHg 94%
    04:00 0°C° 0.2 mm 4 mps 727 mmHg 95%
    05:00 0°C° 0.2 mm 4 mps 726 mmHg 96%
    06:00 0°C° 0.3 mm 4 mps 726 mmHg 95%
    07:00 +1°C° 0.3 mm 4 mps 726 mmHg 95%
    08:00 +1°C° 0.3 mm 4 mps 725 mmHg 95%
    09:00 +2°C° 1 mm 3 mps 725 mmHg 95%
    10:00 +2°C° 1 mm 3 mps 725 mmHg 96%
    11:00 +2°C° 1 mm 3 mps 725 mmHg 97%
    12:00 +3°C° 0.3 mm 2 mps 725 mmHg 97%
    13:00 +2°C° 0.3 mm 2 mps 725 mmHg 97%
    14:00 +2°C° 0.3 mm 2 mps 726 mmHg 97%
    15:00 +3°C° 0 mm 1 mps 726 mmHg 96%
    16:00 +3°C° 0 mm 1 mps 726 mmHg 94%
    17:00 +3°C° 0 mm 1 mps 726 mmHg 93%
    18:00 +2°C° 0 mm 1 mps 727 mmHg 94%
    19:00 +2°C° 0 mm 1 mps 727 mmHg 94%
    20:00 +1°C° 0 mm 1 mps 727 mmHg 94%
    21:00 +1°C° 0 mm 1 mps 727 mmHg 94%
    22:00 +1°C° 0 mm 1 mps 727 mmHg 93%
    23:00 +1°C° 0 mm 1 mps 727 mmHg 93%

    Day after tomorrow, 27 February, Thursday

    Time Temperature Precipitation Wind Pressure Humidity
    00:00 +1°C° 0 mm 1 mps 727 mmHg 93%
    01:00 +1°C° 0 mm 1 mps 727 mmHg 94%
    02:00 +1°C° 0 mm 1 mps 727 mmHg 94%
    03:00 +1°C° 0 mm 1 mps 727 mmHg 94%
    04:00 +1°C° 0 mm 1 mps 726 mmHg 95%
    05:00 +1°C° 0 mm 1 mps 726 mmHg 95%
    06:00 +1°C° 0 mm 1 mps 726 mmHg 95%
    07:00 +1°C° 0 mm 1 mps 726 mmHg 94%
    08:00 +2°C° 0 mm 1 mps 726 mmHg 94%
    09:00 +2°C° 0.1 mm 1 mps 726 mmHg 94%
    10:00 +2°C° 0.1 mm 1 mps 726 mmHg 94%
    11:00 +3°C° 0.1 mm 1 mps 725 mmHg 94%
    12:00 +2°C° 0.1 mm 1 mps 725 mmHg 95%
    13:00 +2°C° 0.1 mm 1 mps 725 mmHg 96%
    14:00 +2°C° 0.1 mm 1 mps 725 mmHg 97%
    15:00 +1°C° 0.1 mm 2 mps 725 mmHg 93%
    16:00 +1°C° 0.1 mm 2 mps 725 mmHg 89%
    17:00 0°C° 0.1 mm 3 mps 725 mmHg 85%
    18:00 -1°C° 0 mm 3 mps 726 mmHg 85%
    19:00 -1°C° 0 mm 3 mps 726 mmHg 85%
    20:00 -2°C° 0 mm 3 mps 727 mmHg 85%
    21:00 -2°C° 0 mm 3 mps 727 mmHg 87%
    22:00 -2°C° 0 mm 3 mps 727 mmHg 90%
    23:00 -2°C° 0 mm 2 mps 727 mmHg 93%

    28 February, Friday

    Time Temperature Precipitation Wind Pressure Humidity
    00:00 -3°C° 0 mm 2 mps 727 mmHg 92%
    01:00 -3°C° 0 mm 2 mps 728 mmHg 91%
    02:00 -3°C° 0 mm 2 mps 728 mmHg 90%
    03:00 -3°C° 0 mm 2 mps 728 mmHg 90%
    04:00 -3°C° 0 mm 2 mps 728 mmHg 89%
    05:00 -3°C° 0 mm 2 mps 728 mmHg 89%
    06:00 -3°C° 0 mm 2 mps 729 mmHg 86%
    07:00 -4°C° 0 mm 3 mps 729 mmHg 84%
    08:00 -4°C° 0 mm 3 mps 729 mmHg 81%
    09:00 -4°C° 0 mm 3 mps 729 mmHg 77%
    10:00 -2°C° 0 mm 3 mps 729 mmHg 74%
    11:00 -2°C° 0 mm 3 mps 730 mmHg 70%
    12:00 -2°C° 0 mm 3 mps 730 mmHg 70%
    13:00 -1°C° 0 mm 3 mps 730 mmHg 69%
    14:00 -2°C° 0 mm 4 mps 730 mmHg 68%
    15:00 -1°C° 0 mm 3 mps 731 mmHg 69%
    16:00 -2°C° 0 mm 3 mps 731 mmHg 70%
    17:00 -2°C° 0 mm 3 mps 731 mmHg 70%
    18:00 -2°C° 0 mm 3 mps 732 mmHg 72%
    19:00 -2°C° 0 mm 3 mps 732 mmHg 73%
    20:00 -4°C° 0 mm 3 mps 732 mmHg 75%
    21:00 -4°C° 0 mm 3 mps 733 mmHg 75%
    22:00 -4°C° 0 mm 3 mps 733 mmHg 76%
    23:00 -4°C° 0 mm 3 mps 733 mmHg 76%

    29 February, Saturday

    Time Temperature Precipitation Wind Pressure Humidity
    00:00 -3°C° 0 mm 2 mps 733 mmHg 77%
    01:00 -3°C° 0 mm 2 mps 733 mmHg 78%
    02:00 -3°C° 0 mm 2 mps 733 mmHg 78%
    03:00 -4°C° 0 mm 3 mps 733 mmHg 80%
    04:00 -4°C° 0 mm 3 mps 733 mmHg 81%
    05:00 -4°C° 0 mm 3 mps 733 mmHg 83%
    06:00 -2°C° 0.1 mm 3 mps 733 mmHg 83%
    07:00 -2°C° 0.1 mm 3 mps 734 mmHg 84%
    08:00 -2°C° 0.1 mm 3 mps 734 mmHg 84%
    09:00 -2°C° 0 mm 3 mps 734 mmHg 76%
    10:00 -1°C° 0 mm 3 mps 734 mmHg 68%
    11:00 -1°C° 0 mm 3 mps 734 mmHg 60%
    12:00 -1°C° 0 mm 3 mps 734 mmHg 57%
    13:00 0°C° 0 mm 3 mps 735 mmHg 55%
    14:00 0°C° 0 mm 3 mps 735 mmHg 52%
    15:00 -1°C° 0 mm 3 mps 735 mmHg 56%
    16:00 -1°C° 0 mm 2 mps 735 mmHg 60%
    17:00 0°C° 0 mm 1 mps 736 mmHg 64%
    18:00 0°C° 0 mm 1 mps 736 mmHg 66%
    19:00 -1°C° 0 mm 1 mps 736 mmHg 69%
    20:00 -1°C° 0 mm 1 mps 737 mmHg 71%
    21:00 -3°C° 0 mm 2 mps 737 mmHg 71%
    22:00 -3°C° 0 mm 2 mps 737 mmHg 71%
    23:00 -3°C° 0 mm 2 mps 737 mmHg 72%

    1 March, Sunday

    Time Temperature Precipitation Wind Pressure Humidity
    00:00 -3°C° 0 mm 2 mps 737 mmHg 72%
    01:00 -3°C° 0 mm 2 mps 737 mmHg 72%
    02:00 -3°C° 0 mm 2 mps 737 mmHg 72%
    03:00 -3°C° 0 mm 2 mps 737 mmHg 73%
    04:00 -3°C° 0 mm 2 mps 737 mmHg 74%
    05:00 -3°C° 0 mm 2 mps 737 mmHg 74%
    06:00 -3°C° 0.1 mm 2 mps 737 mmHg 78%
    07:00 -4°C° 0.1 mm 3 mps 738 mmHg 81%
    08:00 -4°C° 0.1 mm 3 mps 738 mmHg 84%
    09:00 -2°C° 0 mm 3 mps 738 mmHg 82%
    10:00 -1°C° 0 mm 3 mps 738 mmHg 79%
    11:00 -1°C° 0 mm 3 mps 738 mmHg 76%
    12:00 0°C° 0 mm 3 mps 738 mmHg 74%
    13:00 0°C° 0 mm 3 mps 738 mmHg 72%
    14:00 0°C° 0 mm 3 mps 738 mmHg 70%
    15:00 0°C° 0 mm 3 mps 737 mmHg 71%
    16:00 0°C° 0 mm 3 mps 737 mmHg 72%
    17:00 0°C° 0 mm 3 mps 737 mmHg 73%
    18:00 -2°C° 0.1 mm 4 mps 737 mmHg 76%
    19:00 -2°C° 0.1 mm 4 mps 737 mmHg 79%
    20:00 -2°C° 0.1 mm 5 mps 737 mmHg 83%
    21:00 -2°C° 0.6 mm 5 mps 736 mmHg 87%
    22:00 -2°C° 0.6 mm 5 mps 736 mmHg 91%
    23:00 -2°C° 0.6 mm 5 mps 736 mmHg 95%
    Show more